FW6291 Weather Reports


time (UTC)temp
C
wind
direction
speed
KPH
gust
KPH
rain 1hr
cm
rain 24hr
cm
rain mn
cm
humidity
%
barometer
mb
20260505070110 13 115 0.0 0.0 0.00 0.00 0.00 79 1014.4
20260505065109 13 115 0.0 0.0 0.00 0.00 0.00 79 1014.4
20260505064108 13 115 0.0 0.0 0.00 0.00 0.00 77 1014.4
20260505063107 13 115 0.0 0.0 0.00 0.00 0.00 77 1014.4
20260505062106 13 115 0.0 0.0 0.00 0.00 0.00 76 1014.5
20260505060104 13 115 0.0 0.0 0.00 0.00 0.00 73 1014.5
20260505054102 13 115 0.0 0.0 0.00 0.00 0.00 73 1014.6
20260505053101 13 115 0.0 0.0 0.00 0.00 0.00 73 1014.6
20260505052100 13 115 0.0 0.0 0.00 0.00 0.00 72 1014.6
20260505051059 14 115 0.0 0.0 0.00 0.00 0.00 72 1014.7
20260505034049 14 112 0.0 0.0 0.00 0.00 0.00 74 1014.7
20260505033049 14 221 0.0 0.0 0.00 0.00 0.00 73 1014.6
20260505032047 14 221 0.0 1.6 0.00 0.00 0.00 72 1014.5
20260505031046 14 212 0.0 0.0 0.00 0.00 0.00 73 1014.6
20260505030046 15 236 0.0 0.0 0.00 0.00 0.00 73 1014.5
20260505025045 15 246 0.0 1.6 0.00 0.00 0.00 73 1014.4
20260505024044 15 304 0.0 6.4 0.00 0.00 0.00 71 1014.4
20260505021040 16 236 1.6 1.6 0.00 0.00 0.00 64 1014.0
20260505015038 16 130 0.0 0.0 0.00 0.00 0.00 64 1013.9
20260505014037 16 102 0.0 1.6 0.00 0.00 0.00 65 1014.1
20260505013036 16 149 0.0 0.0 0.00 0.00 0.00 65 1014.2
20260505012035 16 234 0.0 0.0 0.00 0.00 0.00 65 1014.2
20260505011034 16 204 0.0 6.4 0.00 0.00 0.00 65 1014.4
20260505010033 17 181 0.0 0.0 0.00 0.00 0.00 64 1014.3
20260505005032 17 248 6.4 6.4 0.00 0.00 0.00 62 1014.3
20260505004031 17 292 0.0 3.2 0.00 0.00 0.00 63 1014.3
20260505003030 17 136 0.0 4.8 0.00 0.00 0.00 63 1014.3
20260505002029 18 245 0.0 3.2 0.00 0.00 0.00 61 1014.2
20260505001028 18 210 0.0 6.4 0.00 0.00 0.00 59 1014.2
20260504235026 18 212 0.0 3.2 0.00 0.00 0.00 60 1014.0
20260504234025 18 227 0.0 6.4 0.00 0.00 0.00 60 1014.0
20260504233024 18 131 0.0 3.2 0.00 0.00 0.00 60 1014.0
20260504232023 18 318 0.0 6.4 0.00 0.00 0.00 60 1014.1
20260504231022 18 269 1.6 3.2 0.00 0.00 0.00 61 1014.2
20260504230021 18 230 0.0 6.4 0.00 0.00 0.00 61 1014.3
20260504225020 18 274 0.0 6.4 0.00 0.00 0.00 58 1014.3
20260504224019 19 134 1.6 3.2 0.00 0.00 0.00 59 1014.5
20260504223018 19 294 4.8 4.8 0.00 0.00 0.00 55 1014.4
20260504222017 19 323 3.2 8.0 0.00 0.00 0.00 55 1014.5
20260504221016 19 297 1.6 9.7 0.00 0.00 0.00 57 1014.7
20260504220015 20 255 1.6 4.8 0.00 0.00 0.00 53 1014.9
20260504215014 20 235 3.2 9.7 0.00 0.00 0.00 55 1015.1
20260504214013 20 226 0.0 9.7 0.00 0.00 0.00 53 1015.2
20260504213012 20 238 6.4 6.4 0.00 0.00 0.00 52 1015.1
20260504212011 20 255 3.2 12.9 0.00 0.00 0.00 50 1015.0
20260504211010 21 276 1.6 6.4 0.00 0.00 0.00 47 1015.2
20260504205008 20 214 0.0 8.0 0.00 0.00 0.00 50 1015.0
20260504201004 20 124 0.0 4.8 0.00 0.00 0.00 50 1015.1
20260504200003 20 170 0.0 1.6 0.00 0.00 0.00 52 1015.1
20260504193000 18 225 0.0 0.0 0.00 0.00 0.00 57 1015.4
20260504185957 16 105 0.0 0.0 0.00 0.00 0.00 64 1015.6
20260504184956 16 261 0.0 1.6 0.00 0.00 0.00 64 1015.6
20260504183955 16 198 1.6 3.2 0.00 0.00 0.00 63 1015.6
20260504175951 17 90 0.0 1.6 0.00 0.00 0.00 63 1015.5
20260504174950 16 96 0.0 1.6 0.00 0.00 0.00 65 1015.6
20260504173949 16 101 0.0 0.0 0.00 0.00 0.00 66 1015.5
20260504172948 16 127 0.0 3.2 0.00 0.00 0.00 66 1015.4
20260504171947 16 113 0.0 0.0 0.00 0.00 0.00 67 1015.4
20260504170946 16 101 0.0 0.0 0.00 0.00 0.00 68 1015.4
20260504150934 14 71 0.0 1.6 0.00 0.00 0.00 79 1014.9
20260504081852 13 94 0.0 0.0 0.00 0.00 0.00 81 1015.3
20260504080851 13 94 0.0 0.0 0.00 0.00 0.00 81 1015.2